RA1AMW-14 Weather Reports


Display with metric or nautical units.
time (UTC)temp
F
wind
direction
speed
MPH
gust
MPH
rain 1hr
in
rain 24hr
in
rain mn
in
humidity
%
barometer
mb
20260507054004 61 126 3.0 8.0 0.00 0.00 0.20 10 1000.1
20260507053004 63 105 4.0 8.0 0.00 0.00 0.20 10 1000.2
20260507052004 62 46 3.0 9.0 0.00 0.00 0.20 10 1000.0
20260507051003 59 85 2.0 7.0 0.00 0.00 0.20 10 999.9
20260507050005 55 155 2.0 6.0 0.00 0.00 0.20 10 1000.1
20260507045006 54 160 1.0 4.0 0.00 0.00 0.20 10 1000.1
20260507044003 54 189 1.0 3.0 0.00 0.00 0.20 10 1000.1
20260507042003 53 49 1.0 4.0 0.00 0.00 0.20 10 1000.2
20260507041004 51 41 2.0 3.0 0.00 0.00 0.20 10 1000.2
20260507035003 44 233 1.0 2.0 0.00 0.00 0.00 10 1000.0
20260507033005 40 189 2.0 2.0 0.00 0.00 0.00 10 999.9
20260507032003 39 208 2.0 2.0 0.00 0.00 0.00 10 999.9
20260507030004 37 185 1.0 3.0 0.00 0.00 0.00 10 999.8
20260507024004 34 226 2.0 3.0 0.00 0.00 0.00 10 999.9
20260507023004 33 221 1.0 2.0 0.00 0.00 0.00 10 999.8
20260507021004 32 235 2.0 3.0 0.00 0.00 0.00 10 999.7
20260507020004 32 246 2.0 2.0 0.00 0.00 0.00 10 999.5
20260507013004 32 220 2.0 2.0 0.00 0.00 0.00 10 999.9
20260507012003 32 308 1.0 2.0 0.00 0.00 0.00 10 999.7
20260507011003 32 301 1.0 2.0 0.00 0.00 0.00 10 999.8
20260507010004 33 304 0.0 3.0 0.00 0.00 0.00 10 999.7
20260507005003 33 33 1.0 2.0 0.00 0.00 0.00 10 999.6
20260507004003 33 217 0.0 2.0 0.00 0.00 0.00 10 999.7
20260507003004 33 245 1.0 2.0 0.00 0.00 0.00 10 999.8
20260507001003 33 273 2.0 3.0 0.00 0.00 0.00 10 999.9
20260507000004 34 303 2.0 3.0 0.00 0.00 0.00 10 999.6
20260506234003 34 278 2.0 2.0 0.00 0.00 0.00 10 999.6
20260506232003 34 235 0.0 2.0 0.00 0.00 0.00 10 999.5
20260506231004 35 186 0.0 2.0 0.00 0.00 0.00 10 999.4
20260506230003 35 25 1.0 2.0 0.00 0.00 0.00 10 999.2
20260506225003 35 277 0.0 2.0 0.00 0.00 0.00 10 999.3
20260506224003 35 237 0.0 2.0 0.00 0.00 0.00 10 999.4
20260506223003 35 258 1.0 2.0 0.00 0.00 0.00 10 999.3
20260506220004 35 181 1.0 2.0 0.00 0.00 0.00 10 999.2
20260506215003 36 181 0.0 2.0 0.00 0.00 0.00 10 999.0
20260506213004 36 181 1.0 2.0 0.00 0.00 0.00 10 998.9
20260506212003 36 121 0.0 2.0 0.00 0.00 0.00 10 998.9
20260506210004 36 188 0.0 2.0 0.00 0.00 0.00 10 998.8
20260506205003 37 187 1.0 2.0 0.00 0.00 6.14 10 998.9
20260506203004 37 181 0.0 2.0 0.00 0.00 6.14 10 998.6
20260506202003 38 102 0.0 2.0 0.00 0.00 6.14 10 998.7
20260506201002 38 181 0.0 2.0 0.00 0.00 6.14 10 998.7
20260506195003 39 181 1.0 2.0 0.00 0.00 6.14 10 998.6
20260506194003 39 254 0.0 2.0 0.00 0.00 6.14 10 998.6
20260506193003 40 253 0.0 3.0 0.00 0.00 6.14 10 998.6
20260506192003 40 254 2.0 4.0 0.00 0.00 6.14 10 998.7
20260506191003 40 252 1.0 3.0 0.00 0.00 6.14 10 998.6
20260506190004 41 274 0.0 2.0 0.00 0.00 6.14 10 998.6
20260506184003 42 269 1.0 4.0 0.00 0.00 6.14 10 998.7
20260506183007 43 255 2.0 4.0 0.00 0.00 6.14 10 998.8
20260506182003 43 245 1.0 3.0 0.00 0.00 6.14 10 998.5
20260506175002 47 245 2.0 7.0 0.00 0.00 6.14 10 998.4
20260506173004 50 262 2.0 11.0 0.00 0.00 6.14 10 998.4
20260506172003 50 281 4.0 9.0 0.00 0.00 6.14 10 998.1
20260506171003 51 272 4.0 9.0 0.00 0.00 6.14 10 998.1
20260506170004 51 269 3.0 9.0 0.00 0.00 6.14 10 998.2
20260506165003 53 274 3.0 8.0 0.00 0.00 6.14 10 998.3
20260506164003 53 279 3.0 10.0 0.00 0.00 6.14 10 998.0
20260506163004 54 275 5.0 11.0 0.00 0.00 6.14 10 997.9
20260506162003 53 294 5.0 12.0 0.00 0.00 6.14 10 997.8
20260506155002 58 295 5.0 12.0 0.00 0.00 6.14 10 997.7
20260506154003 60 276 4.0 14.0 0.00 0.00 6.14 10 997.6
20260506153003 62 270 5.0 11.0 0.00 0.00 6.14 10 997.6
20260506152003 62 268 5.0 14.0 0.00 0.00 6.14 10 997.6
20260506151003 61 262 3.0 15.0 0.00 0.00 6.14 10 997.4
20260506150004 61 273 8.0 14.0 0.00 0.00 6.14 10 997.5